QPF
0.00 0.00 0.00 0.00 0.00 0.00 0.00 0.00 0.00 0.00 0.00 0.00 0.00 0.00 0.00 0.00 0.00 0.00 0.00 0.00 0.00 0.00 0.00 0.00 0.00 0.00 0.00 0.00 0.00 0.00 0.00 0.00 0.00 0.00 0.00 0.00 0.00 0.00 0.00 0.00 0.00 0.00 0.00
0.00 0.00 0.00 0.00 0.00 0.00 0.00 0.00 0.00 0.00 0.00 0.00 0.00 0.00 0.00 0.00 0.00 0.00 0.00 0.00 0.00 0.00 0.00 0.00 0.00 0.00 0.00 0.00 0.00 0.00 0.00 0.00 0.00 0.00 0.00 0.00 0.00 0.00 0.00 0.00 0.00 0.00 0.00
0.00 0.00 0.00 0.00 0.00 0.00 0.00 0.00 0.00 0.00 0.00 0.00 0.00 0.00 0.00 0.00 0.00 0.00 0.00 0.00 0.00 0.00 0.00 0.00 0.00 0.00 0.00 0.00 0.00 0.00 0.00 0.00 0.00 0.00 0.00 0.00 0.00 0.00 0.00 0.00 0.00 0.00 0.00
0.00 0.00 0.00 0.00 0.00 0.00 0.00 0.00 0.00 0.00 0.00 0.00 0.00 0.00 0.00 0.00 0.00 0.00 0.00 0.00 0.00 0.00 0.00 0.00 0.00 0.00 0.00 0.00 0.00 0.00 0.00 0.00 0.00 0.00 0.00 0.00 0.00 0.00 0.00 0.00 0.00 0.00 0.00
0.00 0.00 0.00 0.00 0.00 0.00 0.00 0.00 0.00 0.00 0.00 0.00 0.00 0.00 0.00 0.00 0.00 0.00 0.00 0.00 0.00 0.00 0.00 0.00 0.00 0.00 0.00 0.00 0.00 0.00 0.00 0.00 0.00 0.00 0.00 0.00 0.00 0.00 0.00 0.00 0.00 0.00 0.00
0.00 0.00 0.00 0.00 0.00 0.00 0.00 0.00 0.00 0.00 0.00 0.00 0.00 0.00 0.00 0.00 0.00 0.00 0.00 0.00 0.00 0.00 0.00 0.00 0.00 0.00 0.00 0.00 0.00 0.00 0.00 0.00 0.00 0.00 0.00 0.00 0.00 0.00 0.00 0.00 0.00 0.00 0.00
0.00 0.00 0.00 0.00 0.00 0.00 0.00 0.00 0.00 0.00 0.00 0.00 0.00 0.00 0.00 0.00 0.00 0.00 0.00 0.00 0.00 0.00 0.00 0.00 0.00 0.00 0.00 0.00 0.00 0.00 0.00 0.00 0.00 0.00 0.00 0.00 0.00 0.00 0.00 0.00 0.00 0.00 0.00
0.00 0.00 0.00 0.00 0.00 0.00 0.00 0.00 0.00 0.00 0.00 0.00 0.00 0.00 0.00 0.00 0.00 0.00 0.00 0.00 0.00 0.00 0.00 0.00 0.00 0.00 0.00 0.00 0.00 0.00 0.00 0.00 0.00 0.00 0.00 0.00 0.00 0.00 0.00 0.00 0.00 0.00 0.00
0.00 0.00 0.00 0.00 0.00 0.00 0.00 0.00 0.00 0.00 0.00 0.00 0.00 0.00 0.00 0.00 0.00 0.00 0.00 0.00 0.00 0.00 0.00 0.00 0.00 0.00 0.00 0.00 0.00 0.00 0.00 0.00 0.00 0.00 0.00 0.00 0.00 0.00 0.00 0.00 0.00 0.00 0.00
0.00 0.00 0.00 0.00 0.00 0.00 0.00 0.00 0.00 0.00 0.00 0.00 0.00 0.00 0.00 0.00 0.00 0.00 0.00 0.00 0.00 0.00 0.00 0.00 0.00 0.00 0.00 0.00 0.00 0.00 0.00 0.00 0.00 0.00 0.00 0.00 0.00 0.00 0.00 0.00 0.00 0.00 0.00
0.00 0.00 0.00 0.00 0.00 0.00 0.00 0.00 0.00 0.00 0.00 0.00 0.00 0.00 0.00 0.00 0.00 0.00 0.00 0.00 0.00 0.00 0.00 0.00 0.00 0.00 0.00 0.00 0.00 0.00 0.00 0.00 0.00 0.00 0.00 0.00 0.00 0.00 0.00 0.00 0.00 0.00 0.00
0.00 0.00 0.00 0.00 0.00 0.00 0.00 0.00 0.00 0.00 0.00 0.00 0.00 0.00 0.00 0.00 0.00 0.00 0.00 0.00 0.00 0.00 0.00 0.00 0.00 0.00 0.00 0.00 0.00 0.00 0.00 0.00 0.00 0.00 0.00 0.00 0.00 0.00 0.00 0.00 0.00 0.00 0.01
0.00 0.00 0.00 0.00 0.00 0.00 0.00 0.00 0.00 0.00 0.00 0.00 0.00 0.00 0.00 0.00 0.00 0.00 0.00 0.00 0.00 0.00 0.00 0.00 0.00 0.00 0.00 0.00 0.00 0.00 0.00 0.00 0.00 0.00 0.00 0.00 0.00 0.00 0.00 0.00 0.00 0.01 0.02
0.00 0.00 0.00 0.00 0.00 0.00 0.00 0.00 0.00 0.00 0.00 0.00 0.00 0.00 0.00 0.00 0.00 0.00 0.00 0.00 0.00 0.00 0.00 0.00 0.00 0.00 0.00 0.00 0.00 0.00 0.00 0.00 0.00 0.00 0.00 0.00 0.00 0.00 0.00 0.00 0.00 0.00 0.00
0.00 0.00 0.00 0.00 0.00 0.00 0.00 0.00 0.00 0.00 0.00 0.00 0.00 0.00 0.00 0.00 0.00 0.00 0.00 0.00 0.00 0.00 0.00 0.00 0.00 0.00 0.00 0.00 0.00 0.00 0.00 0.00 0.00 0.00 0.00 0.00 0.00 0.00 0.00 0.00 0.00 0.00 0.00
0.00 0.00 0.00 0.00 0.00 0.00 0.00 0.00 0.00 0.00 0.00 0.00 0.00 0.00 0.00 0.00 0.00 0.00 0.00 0.00 0.00 0.00 0.00 0.00 0.00 0.00 0.00 0.00 0.00 0.00 0.00 0.00 0.00 0.00 0.00 0.01 0.00 0.00 0.00 0.00 0.00 0.00 0.00
0.00 0.00 0.00 0.00 0.00 0.00 0.00 0.00 0.00 0.00 0.00 0.00 0.00 0.00 0.00 0.00 0.00 0.00 0.00 0.00 0.00 0.00 0.00 0.00 0.00 0.00 0.00 0.00 0.00 0.00 0.00 0.00 0.00 0.00 0.00 0.00 0.00 0.00 0.00 0.00 0.00 0.00 0.01
0.00 0.00 0.00 0.00 0.00 0.00 0.00 0.00 0.00 0.00 0.00 0.00 0.00 0.00 0.00 0.00 0.00 0.00 0.00 0.00 0.00 0.00 0.00 0.00 0.00 0.00 0.00 0.00 0.00 0.00 0.00 0.00 0.00 0.00 0.00 0.00 0.00 0.00 0.00 0.00 0.01 0.02 0.03
0.00 0.00 0.00 0.00 0.00 0.00 0.00 0.00 0.00 0.00 0.00 0.00 0.00 0.00 0.00 0.00 0.00 0.00 0.00 0.00 0.00 0.00 0.00 0.00 0.00 0.00 0.00 0.00 0.00 0.00 0.00 0.00 0.00 0.00 0.00 0.00 0.00 0.00 0.00 0.00 0.01 0.01 0.01
0.00 0.00 0.00 0.00 0.00 0.00 0.00 0.00 0.00 0.00 0.00 0.00 0.00 0.00 0.00 0.00 0.00 0.00 0.00 0.00 0.00 0.00 0.00 0.00 0.02 0.01 0.01 0.00 0.00 0.00 0.00 0.00 0.00 0.00 0.00 0.00 0.00 0.00 0.00 0.00 0.00 0.00 0.00
0.00 0.00 0.00 0.00 0.00 0.00 0.00 0.00 0.00 0.00 0.00 0.00 0.00 0.00 0.00 0.00 0.00 0.00 0.00 0.00 0.00 0.01 0.03 0.04 0.02 0.00 0.00 0.00 0.00 0.00 0.00 0.00 0.00 0.00 0.00 0.00 0.00 0.00 0.00 0.00 0.00 0.00 0.00
0.00 0.00 0.00 0.00 0.00 0.00 0.00 0.00 0.00 0.00 0.00 0.00 0.00 0.00 0.00 0.00 0.00 0.00 0.00 0.00 0.01 0.06 0.02 0.00 0.00 0.00 0.00 0.00 0.00 0.01 0.01 0.01 0.00 0.00 0.00 0.00 0.00 0.00 0.00 0.00 0.00 0.00 0.00
0.00 0.00 0.00 0.00 0.00 0.00 0.00 0.00 0.00 0.00 0.00 0.00 0.00 0.00 0.00 0.00 0.00 0.00 0.00 0.01 0.04 0.00 0.00 0.00 0.00 0.00 0.00 0.01 0.02 0.01 0.00 0.01 0.00 0.00 0.00 0.00 0.00 0.00 0.00 0.00 0.00 0.00 0.00
0.00 0.00 0.00 0.00 0.00 0.00 0.00 0.00 0.00 0.00 0.00 0.00 0.00 0.00 0.00 0.00 0.00 0.00 0.01 0.03 0.00 0.00 0.00 0.00 0.00 0.00 0.01 0.01 0.00 0.00 0.01 0.01 0.00 0.00 0.00 0.00 0.00 0.00 0.00 0.00 0.00 0.00 0.00
0.00 0.00 0.00 0.00 0.00 0.00 0.00 0.00 0.00 0.00 0.00 0.00 0.00 0.00 0.00 0.00 0.00 0.01 0.01 0.00 0.00 0.00 0.00 0.00 0.00 0.00 0.00 0.00 0.00 0.01 0.01 0.01 0.01 0.00 0.00 0.00 0.00 0.00 0.00 0.00 0.00 0.00 0.00
0.00 0.00 0.00 0.00 0.00 0.00 0.00 0.00 0.00 0.00 0.00 0.00 0.00 0.00 0.00 0.00 0.01 0.02 0.00 0.00 0.00 0.00 0.01 0.01 0.00 0.00 0.00 0.00 0.00 0.00 0.00 0.04 0.02 0.02 0.00 0.02 0.01 0.01 0.03 0.00 0.00 0.00 0.00
MSLP
1016.83 1017.09 1017.54 1017.69 1017.96 1017.82 1017.88 1018.12 1018.07 1018.23 1018.07 1017.97 1017.94 1017.56 1017.41 1017.30 1017.10 1017.00 1016.90 1016.77 1016.38 1016.11 1015.96 1015.80 1015.69 1015.36 1015.22 1015.04 1014.72 1014.52 1014.31 1014.05 1013.76 1013.43 1013.23 1013.05 1012.91 1012.80 1012.62 1012.49 1012.28 1012.16 1012.10
1017.08 1017.42 1017.79 1017.97 1018.11 1018.18 1018.36 1018.45 1018.45 1018.47 1018.39 1018.18 1018.08 1017.73 1017.49 1017.41 1017.29 1017.19 1017.09 1017.08 1017.03 1016.79 1016.55 1016.40 1016.22 1015.99 1015.81 1015.48 1015.15 1014.97 1014.61 1014.38 1013.99 1013.63 1013.35 1013.13 1012.97 1012.79 1012.66 1012.50 1012.39 1012.24 1012.10
1017.08 1017.61 1017.83 1018.19 1018.43 1018.57 1018.57 1018.67 1018.73 1018.59 1018.59 1018.30 1018.08 1017.69 1017.52 1017.48 1017.51 1017.44 1017.36 1017.38 1017.38 1017.32 1017.04 1016.90 1016.77 1016.53 1016.26 1015.88 1015.57 1015.35 1014.94 1014.67 1014.37 1014.00 1013.65 1013.36 1013.15 1012.95 1012.70 1012.57 1012.43 1012.30 1012.14
1017.16 1017.76 1018.17 1018.42 1018.76 1018.75 1018.80 1018.97 1018.84 1018.83 1018.76 1018.32 1017.98 1017.64 1017.50 1017.55 1017.58 1017.64 1017.56 1017.60 1017.65 1017.60 1017.54 1017.42 1017.27 1017.05 1016.78 1016.39 1015.96 1015.64 1015.25 1014.94 1014.65 1014.30 1013.84 1013.47 1013.23 1012.99 1012.74 1012.51 1012.37 1012.23 1012.09
1017.33 1017.78 1018.42 1018.78 1018.92 1018.82 1019.00 1019.11 1019.17 1019.20 1019.02 1018.47 1017.94 1017.62 1017.41 1017.43 1017.60 1017.75 1017.66 1017.71 1017.86 1017.87 1017.82 1017.76 1017.58 1017.29 1017.03 1016.66 1016.23 1015.88 1015.45 1015.06 1014.73 1014.34 1013.85 1013.41 1013.21 1012.93 1012.64 1012.40 1012.21 1012.07 1011.90
1017.48 1018.01 1018.71 1018.81 1019.03 1019.03 1019.23 1019.38 1019.51 1019.68 1019.50 1018.89 1017.99 1017.68 1017.44 1017.58 1017.75 1017.78 1017.74 1017.76 1017.88 1017.96 1017.94 1017.92 1017.60 1017.26 1017.02 1016.66 1016.29 1016.00 1015.52 1015.14 1014.69 1014.26 1013.53 1013.29 1013.10 1012.78 1012.44 1012.25 1012.07 1011.86 1011.62
1017.63 1018.19 1018.69 1019.06 1019.33 1019.38 1019.76 1019.82 1019.91 1019.84 1019.52 1019.04 1018.32 1017.69 1017.51 1017.68 1017.64 1017.74 1017.62 1017.74 1017.95 1018.02 1017.98 1017.73 1017.48 1017.20 1016.78 1016.58 1016.31 1016.03 1015.43 1014.98 1014.48 1013.97 1013.32 1013.16 1012.94 1012.53 1012.19 1011.92 1011.73 1011.51 1011.28
1017.91 1018.27 1018.73 1019.30 1019.61 1019.78 1020.15 1020.14 1020.03 1019.95 1019.91 1019.86 1019.25 1018.97 1018.25 1017.71 1017.56 1017.53 1017.77 1017.83 1017.87 1017.85 1017.68 1017.55 1017.46 1017.17 1016.77 1016.36 1016.14 1015.79 1015.40 1014.96 1014.34 1013.67 1013.20 1012.91 1012.55 1012.15 1011.78 1011.50 1011.24 1011.00 1010.79
1018.22 1018.42 1019.00 1019.41 1019.92 1020.15 1020.32 1020.39 1020.38 1020.29 1020.08 1020.15 1019.93 1019.68 1019.30 1019.13 1019.00 1017.88 1017.58 1017.84 1017.83 1018.00 1017.86 1017.75 1017.48 1017.11 1016.74 1016.34 1016.00 1015.63 1015.26 1014.81 1014.17 1013.47 1012.97 1012.55 1012.17 1011.86 1011.45 1011.05 1010.65 1010.31 1010.04
1018.54 1018.76 1019.26 1019.73 1020.11 1020.36 1020.45 1020.61 1020.68 1020.57 1020.39 1020.35 1020.32 1020.47 1020.48 1020.45 1019.89 1018.73 1018.20 1017.88 1018.26 1018.17 1017.96 1017.62 1017.30 1016.94 1016.54 1016.19 1015.85 1015.57 1015.11 1014.47 1013.83 1013.26 1012.72 1012.26 1011.85 1011.40 1010.84 1010.44 1010.04 1009.62 1009.18
1018.81 1019.16 1019.56 1020.03 1020.27 1020.49 1020.70 1020.66 1020.83 1020.80 1020.75 1020.72 1020.82 1020.88 1020.76 1020.64 1020.66 1020.24 1018.47 1017.81 1017.95 1017.72 1017.61 1017.45 1017.22 1016.73 1016.35 1016.05 1015.69 1015.29 1014.92 1014.43 1013.69 1013.03 1012.49 1011.97 1011.37 1010.80 1010.36 1009.75 1009.14 1008.63 1008.23
1019.06 1019.51 1019.96 1020.27 1020.47 1020.64 1020.64 1020.80 1021.04 1020.92 1020.87 1021.01 1021.18 1021.17 1021.02 1020.90 1020.53 1020.42 1019.59 1018.55 1018.07 1017.39 1017.43 1017.09 1016.78 1016.45 1016.21 1015.91 1015.64 1015.29 1014.80 1014.16 1013.52 1012.90 1012.29 1011.71 1011.06 1010.37 1009.80 1009.28 1008.92 1008.24 1008.03
1019.02 1019.63 1020.03 1020.31 1020.52 1020.69 1020.78 1020.94 1020.94 1020.92 1021.02 1021.07 1021.12 1021.04 1021.06 1020.90 1020.77 1020.52 1020.06 1019.06 1018.10 1017.48 1017.05 1016.80 1016.52 1016.33 1016.07 1015.86 1015.43 1015.02 1014.40 1013.77 1013.25 1012.67 1011.95 1011.21 1010.51 1009.91 1009.36 1008.82 1008.22 1007.91 1007.64
1018.88 1019.54 1020.11 1020.33 1020.52 1020.70 1020.87 1020.93 1020.93 1020.99 1021.03 1021.00 1020.99 1020.97 1020.94 1020.82 1020.75 1020.47 1020.19 1019.67 1017.79 1016.86 1016.41 1015.99 1016.05 1015.97 1015.95 1015.73 1015.20 1014.70 1013.97 1013.46 1012.89 1012.22 1011.38 1010.60 1010.02 1009.45 1008.75 1008.27 1008.03 1007.68 1007.13
1018.93 1019.65 1020.13 1020.34 1020.58 1020.78 1020.92 1020.95 1020.92 1020.90 1020.92 1020.91 1020.83 1020.79 1020.81 1020.61 1020.45 1020.28 1020.10 1019.82 1019.27 1016.91 1015.46 1015.58 1015.74 1015.84 1015.67 1015.22 1014.55 1013.96 1013.35 1012.77 1012.22 1011.51 1010.73 1010.01 1009.30 1008.61 1008.21 1007.66 1007.04 1006.64 1006.13
1018.99 1019.64 1020.11 1020.41 1020.63 1020.80 1020.91 1020.93 1020.88 1020.84 1020.77 1020.73 1020.69 1020.69 1020.52 1020.37 1020.14 1019.94 1019.74 1019.53 1019.28 1018.58 1016.15 1015.71 1015.23 1015.27 1014.93 1014.32 1013.71 1013.20 1012.57 1012.05 1011.39 1010.68 1010.04 1009.31 1008.65 1007.90 1007.15 1006.50 1006.02 1005.42 1004.84
1019.12 1019.69 1020.18 1020.46 1020.63 1020.77 1020.87 1020.83 1020.79 1020.72 1020.71 1020.63 1020.63 1020.49 1020.32 1020.12 1019.74 1019.47 1019.26 1019.04 1018.68 1018.30 1016.77 1014.50 1014.89 1014.40 1013.93 1013.30 1012.67 1012.31 1011.92 1011.42 1010.66 1010.00 1009.16 1008.36 1007.60 1006.99 1006.29 1005.66 1005.04 1004.43 1003.84
1019.36 1019.88 1020.25 1020.52 1020.68 1020.76 1020.80 1020.73 1020.66 1020.62 1020.52 1020.46 1020.36 1020.23 1020.00 1019.74 1019.47 1019.18 1018.87 1018.50 1018.14 1017.72 1016.85 1014.93 1014.27 1013.56 1012.94 1012.40 1011.96 1011.45 1011.01 1010.48 1009.73 1009.13 1008.51 1007.60 1006.67 1005.87 1005.22 1004.63 1004.06 1003.41 1002.85
1019.65 1020.05 1020.35 1020.59 1020.64 1020.72 1020.67 1020.60 1020.52 1020.37 1020.33 1020.26 1020.17 1020.00 1019.76 1019.50 1019.12 1018.79 1018.44 1017.94 1017.44 1016.85 1016.22 1015.18 1013.38 1012.86 1012.34 1012.03 1011.20 1010.72 1010.11 1009.40 1008.95 1008.33 1007.58 1006.93 1006.05 1005.23 1004.38 1003.53 1002.78 1002.03 1001.46
1019.75 1020.17 1020.47 1020.61 1020.69 1020.64 1020.53 1020.39 1020.24 1020.06 1019.99 1019.91 1019.84 1019.71 1019.50 1019.19 1018.80 1018.38 1017.87 1017.25 1016.65 1015.97 1015.30 1014.35 1013.37 1012.63 1012.02 1011.32 1010.81 1009.81 1008.94 1008.53 1007.76 1007.25 1006.43 1005.86 1004.89 1004.15 1003.39 1002.55 1001.74 1001.07 1000.50
1019.97 1020.32 1020.54 1020.69 1020.69 1020.57 1020.38 1020.12 1019.83 1019.65 1019.56 1019.51 1019.43 1019.19 1018.89 1018.55 1018.12 1017.65 1017.03 1016.40 1015.88 1015.10 1014.39 1013.68 1013.01 1012.34 1011.40 1010.65 1010.15 1009.54 1008.55 1007.56 1006.75 1006.46 1005.11 1004.50 1003.62 1003.02 1002.09 1001.37 1000.67 1000.02 999.54
1020.21 1020.48 1020.65 1020.73 1020.71 1020.56 1020.30 1019.84 1019.51 1019.28 1019.28 1019.17 1018.83 1018.48 1018.23 1017.95 1017.54 1017.07 1016.60 1015.91 1015.23 1014.43 1014.00 1013.36 1012.59 1011.70 1011.05 1010.58 1009.79 1009.07 1008.23 1007.21 1005.19 1005.34 1004.41 1003.34 1002.93 1001.48 1000.83 1000.16 999.64 998.89 997.93
1020.39 1020.62 1020.73 1020.73 1020.73 1020.52 1020.04 1019.62 1019.30 1019.06 1018.96 1018.70 1018.32 1017.93 1017.56 1017.21 1016.78 1016.36 1015.64 1014.95 1014.38 1014.01 1013.58 1012.90 1012.05 1011.40 1010.60 1010.12 1009.48 1008.51 1007.61 1006.82 1005.62 1004.42 1003.97 1002.32 1001.74 1000.38 999.83 998.95 998.08 997.36 996.58
1020.54 1020.64 1020.78 1020.88 1020.63 1020.29 1019.92 1019.51 1019.16 1018.81 1018.52 1018.22 1017.88 1017.42 1017.01 1016.60 1016.21 1015.54 1014.50 1014.07 1013.61 1013.06 1012.68 1012.30 1011.60 1010.74 1010.12 1009.40 1008.82 1008.01 1007.14 1006.17 1004.97 1003.86 1003.44 1001.68 1000.58 999.42 998.57 997.62 996.60 995.85 995.13
1020.57 1020.80 1020.88 1020.67 1020.48 1020.19 1019.85 1019.39 1018.86 1018.43 1018.09 1017.67 1017.23 1016.89 1016.53 1015.96 1015.44 1014.47 1013.91 1013.43 1012.73 1012.24 1011.87 1011.37 1010.73 1010.10 1009.45 1008.74 1008.25 1007.46 1006.53 1005.85 1004.19 1002.93 1002.35 1001.40 999.89 998.70 997.62 995.75 995.01 994.43 993.77
1020.78 1020.81 1020.66 1020.62 1020.38 1020.07 1019.67 1019.11 1018.60 1018.07 1017.49 1017.07 1016.70 1016.27 1016.03 1015.51 1014.64 1014.01 1013.45 1012.84 1012.42 1011.78 1011.23 1010.38 1010.03 1009.42 1008.83 1008.05 1007.49 1007.13 1006.47 1005.56 1004.56 1002.78 1001.39 1001.19 999.80 998.87 996.41 994.57 993.90 993.46 992.37
Thickness
5666 5664 5662 5661 5658 5658 5657 5653 5652 5648 5648 5647 5646 5648 5647 5645 5644 5642 5641 5640 5639 5639 5637 5637 5636 5637 5636 5635 5637 5639 5638 5640 5641 5643 5645 5646 5647 5647 5648 5648 5650 5651 5651
5659 5657 5655 5653 5651 5650 5648 5645 5643 5640 5639 5639 5638 5641 5640 5637 5635 5633 5631 5628 5626 5625 5625 5624 5623 5624 5623 5623 5625 5624 5626 5626 5629 5631 5632 5634 5634 5635 5636 5636 5637 5638 5640
5653 5650 5648 5646 5644 5641 5639 5636 5633 5634 5630 5631 5631 5634 5632 5629 5625 5623 5620 5617 5614 5613 5613 5612 5611 5611 5611 5611 5612 5611 5613 5613 5614 5615 5617 5619 5620 5621 5621 5622 5623 5624 5626
5648 5643 5641 5638 5635 5633 5631 5627 5627 5625 5623 5625 5625 5627 5625 5620 5616 5613 5610 5607 5605 5603 5602 5601 5599 5598 5597 5598 5598 5598 5599 5600 5600 5601 5603 5604 5605 5605 5605 5607 5608 5609 5610
5640 5637 5631 5629 5627 5626 5622 5620 5618 5616 5615 5617 5619 5619 5617 5612 5608 5604 5602 5598 5595 5592 5589 5587 5587 5586 5585 5584 5584 5584 5585 5586 5585 5585 5587 5590 5589 5589 5590 5591 5592 5593 5594
5633 5629 5623 5622 5618 5617 5613 5611 5609 5605 5604 5605 5610 5610 5608 5603 5598 5595 5593 5589 5585 5581 5578 5575 5573 5574 5573 5572 5571 5569 5570 5570 5570 5570 5574 5574 5572 5573 5574 5575 5575 5576 5577
5626 5621 5617 5613 5609 5607 5602 5600 5598 5597 5597 5597 5600 5602 5600 5593 5591 5586 5583 5579 5573 5569 5565 5563 5561 5559 5559 5558 5556 5554 5555 5555 5555 5555 5558 5556 5555 5557 5558 5559 5560 5560 5561
5618 5615 5610 5604 5600 5597 5593 5590 5589 5587 5585 5581 5584 5581 5586 5587 5582 5579 5572 5567 5562 5558 5555 5551 5546 5544 5544 5543 5541 5539 5538 5537 5538 5539 5539 5539 5539 5539 5540 5541 5542 5543 5545
5609 5607 5601 5596 5591 5587 5584 5581 5578 5575 5574 5570 5568 5569 5572 5569 5562 5569 5566 5556 5550 5543 5538 5534 5530 5527 5526 5525 5523 5522 5520 5519 5519 5520 5519 5519 5520 5520 5520 5521 5523 5525 5527
5599 5596 5591 5586 5581 5577 5574 5570 5566 5563 5561 5557 5554 5549 5546 5542 5545 5554 5555 5551 5540 5534 5527 5523 5519 5515 5512 5510 5507 5504 5503 5502 5501 5500 5499 5498 5498 5497 5499 5500 5501 5503 5506
5589 5586 5581 5575 5571 5567 5563 5560 5555 5552 5548 5544 5540 5535 5530 5526 5520 5520 5534 5538 5529 5523 5516 5510 5503 5499 5496 5493 5490 5488 5486 5484 5483 5481 5479 5477 5476 5475 5475 5476 5479 5481 5482
5580 5575 5569 5564 5560 5556 5554 5549 5542 5539 5536 5530 5524 5520 5516 5512 5510 5504 5506 5511 5510 5511 5503 5497 5490 5485 5480 5476 5472 5468 5465 5463 5461 5459 5456 5454 5452 5450 5448 5447 5446 5447 5445
5572 5565 5560 5555 5550 5546 5542 5536 5532 5528 5523 5518 5512 5507 5501 5496 5492 5488 5485 5489 5491 5491 5486 5479 5471 5464 5460 5454 5450 5446 5443 5438 5433 5428 5425 5421 5418 5415 5413 5413 5411 5408 5406
5564 5557 5550 5545 5541 5536 5530 5525 5521 5516 5511 5507 5501 5494 5488 5482 5476 5471 5466 5464 5477 5480 5473 5466 5454 5443 5435 5428 5423 5416 5412 5406 5400 5394 5388 5383 5376 5371 5369 5366 5361 5358 5360
5555 5547 5540 5536 5531 5525 5519 5514 5511 5506 5500 5494 5489 5483 5475 5469 5462 5455 5448 5441 5438 5455 5466 5450 5435 5422 5411 5403 5397 5388 5380 5372 5363 5354 5346 5340 5333 5327 5322 5321 5322 5321 5322
5546 5538 5531 5525 5519 5514 5508 5504 5500 5494 5488 5482 5477 5469 5462 5455 5448 5440 5432 5425 5418 5415 5435 5428 5421 5403 5391 5380 5370 5355 5345 5332 5323 5314 5306 5302 5299 5299 5299 5295 5291 5292 5294
5535 5528 5520 5514 5509 5503 5498 5493 5487 5482 5475 5469 5461 5455 5447 5439 5433 5426 5418 5409 5402 5395 5401 5427 5400 5390 5374 5356 5345 5326 5308 5295 5291 5286 5284 5284 5285 5281 5277 5275 5273 5273 5273
5524 5516 5509 5503 5498 5493 5487 5481 5476 5469 5463 5456 5449 5440 5433 5425 5417 5410 5402 5394 5386 5377 5371 5382 5380 5367 5351 5335 5316 5304 5292 5279 5273 5272 5270 5272 5274 5273 5269 5266 5265 5264 5263
5513 5506 5499 5494 5488 5482 5476 5470 5464 5458 5450 5442 5434 5426 5418 5411 5405 5396 5387 5379 5370 5361 5349 5343 5356 5340 5323 5305 5300 5289 5283 5277 5270 5267 5265 5263 5263 5264 5264 5264 5264 5266 5264
5503 5496 5489 5483 5476 5470 5465 5459 5453 5447 5438 5429 5420 5412 5404 5396 5388 5380 5371 5363 5354 5344 5331 5321 5312 5308 5298 5291 5282 5283 5283 5273 5273 5267 5266 5262 5262 5261 5260 5261 5263 5263 5263
5492 5485 5478 5471 5464 5459 5454 5448 5443 5436 5427 5418 5409 5400 5392 5383 5374 5365 5355 5345 5332 5322 5311 5299 5290 5282 5281 5280 5275 5273 5274 5275 5270 5264 5271 5266 5265 5263 5261 5260 5258 5259 5261
5480 5473 5466 5459 5452 5446 5441 5437 5431 5424 5414 5406 5398 5390 5380 5370 5360 5350 5337 5325 5310 5295 5283 5277 5275 5272 5270 5267 5267 5267 5266 5266 5277 5264 5269 5272 5260 5268 5263 5260 5257 5260 5262
5468 5461 5454 5448 5440 5434 5430 5425 5419 5411 5402 5394 5386 5378 5369 5357 5346 5334 5323 5310 5293 5276 5264 5263 5264 5260 5263 5259 5260 5263 5263 5263 5264 5265 5265 5274 5263 5269 5263 5261 5261 5263 5265
5457 5450 5442 5434 5428 5423 5418 5413 5406 5398 5390 5382 5373 5362 5352 5341 5327 5316 5310 5295 5282 5270 5261 5256 5255 5257 5256 5257 5257 5259 5259 5262 5265 5263 5259 5266 5265 5266 5263 5263 5263 5263 5264
5446 5437 5429 5423 5417 5411 5405 5399 5394 5388 5380 5371 5360 5346 5334 5324 5311 5302 5289 5279 5273 5264 5257 5254 5254 5252 5252 5253 5251 5254 5256 5255 5264 5265 5263 5261 5264 5265 5264 5271 5268 5265 5267
5433 5425 5419 5412 5406 5400 5393 5388 5383 5376 5369 5359 5347 5332 5316 5303 5292 5280 5272 5267 5260 5257 5255 5256 5251 5250 5248 5250 5249 5246 5247 5249 5252 5260 5264 5257 5259 5261 5270 5280 5277 5274 5277